Simultaneous Nadir Overpasses (SNOs) Predictions

Prediction of SNOs between GOES-16 and METOP-C Satellite Orbit:

Table of predicted SNOs for the next 14.0 days since TLE Epoch: 5/4/2025
Index Date Time (GOES-16) GOES-16 Lat,Lon METOP-C Lat,Lon Distance(km) Time Diff (sec)
1 05/06/2025 03:42:40 -0.06, -88.28 -1.00, -92.53 483.64 80
2 05/07/2025 03:19:23 -0.06, -88.79 0.22, -87.56 140.80 80
3 05/08/2025 15:41:00 0.06, -89.60 0.64, -92.16 291.59 80
4 05/09/2025 15:17:43 0.06, -90.12 -0.58, -87.19 333.12 80
5 05/11/2025 03:39:28 -0.06, -90.89 -0.27, -91.83 106.77 80
6 05/13/2025 15:35:07 0.05, -92.22 -0.11, -91.46 85.76 80
7 05/15/2025 03:56:52 -0.05, -92.99 -0.74, -96.10 354.26 80
8 05/16/2025 03:33:35 -0.04, -93.50 0.50, -91.13 270.44 80
9 05/17/2025 15:55:11 0.03, -94.32 0.34, -95.74 161.66 80
10 05/18/2025 15:31:55 0.03, -94.83 -0.90, -90.77 463.19 80
